Flag for U.S.A. Weather past 2 weeks in Tallahassee, Florida, U.S.A.

Now
85 °F

Partly sunny.


Feels Like: 89 °F
Forecast: 67 / 85 °F
Wind: 14 mph from Southwest

Location: Tallahassee Regional Airport

Current Time: Apr 25, 2015 at 6:41:29 PM

Latest Report: Apr 25, 2015 at 5:53 PM


Visibility: 10 mi

Pressure: 29.72 "Hg

Humidity: 61%

Dew point: 70 °F

Location of TallahasseeLocation

Historic Weather in Tallahassee — Graph

°F

Tallahassee temperature yesterday

Maximum temperature yesterday: 88 °F (at 3:53 PM)
Minimum temperature yesterday: 67 °F (at 6:53 AM)
Average temperature yesterday: 76 °F

Past Weeks' High & Low Weather Summary

 TemperatureHumidityPressure
High90 °F (Apr 23, 3:53 PM)97% (Apr 18, 3:53 AM)30.15 "Hg (Apr 18, 3:53 AM)
Low56 °F (Apr 22, 5:53 AM)29% (Apr 21, 6:53 PM)29.74 "Hg (Apr 25, 4:53 PM)
Average73 °F79%30.00 "Hg
* Reported Apr 10 4:53 PM — Apr 25 4:53 PM, Tallahassee, Weather by CustomWeather, © 2015

Note: Actual official high and low records may vary slightly from our data, if they occured in-between our weather recording intervals... More about our weather records

Advertising

Tallahassee weather history for previous 24 hours

 ConditionsComfort  
Time TempWeatherWind HumidityBarometerVisibility
4:53 PM
Sat, Apr 25
86 °FBroken clouds.17 mph65%29.74 "Hg10 mi
3:53 PM81 °FThunderstorms. Broken clouds.10 mph82%29.78 "Hg10 mi
2:53 PM85 °FMostly cloudy.14 mph65%29.79 "Hg10 mi
1:53 PM85 °FPartly sunny.14 mph72%29.80 "Hg10 mi
12:53 PM77 °FBroken clouds.No wind88%29.84 "Hg10 mi
11:53 AM80 °FThunderstorms. Cloudy.13 mph79%29.88 "Hg10 mi
11:01 AM77 °FThunderstorms. Mostly cloudy.No wind85%29.89 "Hg10 mi
9:53 AM75 °FMostly cloudy.7 mph88%29.89 "Hg10 mi
9:01 AM70 °FBroken clouds.6 mph87%29.89 "Hg10 mi
7:53 AM68 °FMostly cloudy.3 mph87%29.89 "Hg10 mi
6:53 AM68 °FMostly cloudy.No wind84%29.88 "Hg10 mi
5:53 AM67 °FPassing clouds.7 mph85%29.86 "Hg10 mi
4:53 AM68 °FPassing clouds.3 mph84%29.87 "Hg10 mi
3:53 AM67 °FClear.6 mph85%29.87 "Hg10 mi
2:53 AM68 °FClear.8 mph82%29.87 "Hg10 mi
1:53 AM66 °FClear.No wind84%29.89 "Hg10 mi
12:53 AM68 °FClear.3 mph76%29.91 "Hg10 mi
11:53 PM
Fri, Apr 24
70 °FClear.No wind71%29.95 "Hg10 mi
10:53 PM73 °FPassing clouds.No wind64%29.96 "Hg10 mi
9:53 PM74 °FPassing clouds.No wind62%29.94 "Hg10 mi
8:53 PM76 °FBroken clouds.5 mph56%29.93 "Hg10 mi
7:53 PM81 °FPartly sunny.5 mph51%29.92 "Hg10 mi
6:53 PM83 °FMostly cloudy.7 mph46%29.95 "Hg10 mi
Weather by CustomWeather, © 2015

See weather overviewHow to use our weather pages